ELECTRON KICK STAGE R/B (46824 NORAD) Tracking and Keplerian Element Data

This shows tracking and keplerian element data for the satellite.

Feedback or suggestion? Click here.




ElementValue
Catalog46824
NameELECTRON KICK STAGE R/B
Epoch Orbit438
Epoch Day331.88276459
Epoch Year2020
RAAN29.0137
Inclination96.641
Eccentricity0.0012418
Argument of Perigee208.1818
Mean Anonmoly151.876
Mean Motion15.16680983
Decay Rate2.276E-05
L11 46824U 20077M 20331.88276459 .00002276 00000-0 11883-3 0 9999
L22 46824 96.6410 29.0137 0012418 208.1818 151.8760 15.16680983 4388

Live tracking and technical data element details for ELECTRON KICK STAGE R/B (NORAD 46824). ELECTRON KICK STAGE R/B can be tracked NOW for your location showing map with azimuth and elevation plus other details from your city location.

Track the satellite on the map from your city or location and see movement details for azimuth, elevation, latitude, longitude, range, height, and movement on the map or in text.







IsCatalogInMostPopularTable: catalog: 46824, numindb: 16
Update: records affected: 1



GetName: 46824 ELECTRON KICK STAGE R/B

Hit Count: updated at: Tue, 01 Dec 2020 20:09:07 GMT